Regional Weather Roundup
Issued by NWS

Home | Current Version | Previous Version | Graphics & Text | Print | Product List | Glossary On
Versions: 1 2 3 4 5 6 7 8 9 10 11 12 13 14 15 16 17 18 19 20 21 22 23 24 25 26 27
000
ASUS45 KCYS 290110
RWRWY

WYOMING REGIONAL WEATHER ROUNDUP
NATIONAL WEATHER SERVICE CHEYENNE WY
700 PM MDT SUN MAY 28 2017

NOTE:  "FAIR" INDICATES FEW OR NO CLOUDS BELOW 12,000 FEET
WITH NO SIGNIFICANT WEATHER AND/OR OBSTRUCTIONS TO VISIBILITY.

WYZ001-290200-
YELLOWSTONE NATIONAL PARK

CITY           SKY/WX    TMP DP  RH WIND       PRES   REMARKS
LK YELLOWSTONE   N/A     49  37  63 CALM      30.38S
W YELLOWSTONE  NOT AVBL

$$
WYZ002>013-054>058-071-098>099-290200-
NORTHERN WYOMING

CITY           SKY/WX    TMP DP  RH WIND       PRES   REMARKS
JACKSON        MOSUNNY   64  32  29 W9        30.26F
CODY           PTSUNNY   62  39  42 W6        30.27S
GREYBULL       FAIR      71  40  32 NW13      30.17S
WORLAND        CLOUDY    65  42  43 CALM      30.21S
SHERIDAN       PTSUNNY   57  47  69 W15       30.20F
BUFFALO        CLOUDY    57  40  52 NW17      30.25R
GILLETTE         N/A    N/A N/A N/A MISG      30.16F
HULETT         MOCLDY    59  41  51 W12G22    30.14S
NEWCASTLE      FAIR      59  36  41 NW18      30.14S

$$
WYZ014>020-022>026-101>103-290200-
CENTRAL WYOMING

CITY           SKY/WX    TMP DP  RH WIND       PRES   REMARKS
BIG PINEY      CLOUDY    62  29  28 NW3       30.28F
PINEDALE       FAIR      63  27  25 NW14      30.29S
DUBOIS         MOCLDY    61  25  25 N8        30.28S
LANDER         FAIR      63  36  36 N12       30.20R
RIVERTON       FAIR      60  40  47 NE24G35   30.22F
CASPER         TSTM      50  46  86 N16       30.26R FOG
DOUGLAS        FAIR      61  40  45 N23G36    30.21R

$$
WYZ021-027>030-104>119-290200-
SOUTHERN WYOMING

CITY           SKY/WX    TMP DP  RH WIND       PRES   REMARKS
EVANSTON       FAIR      65  32  29 N9        30.28F
KEMMERER         N/A     63  28  27 SW9       30.30F
FORT BRIDGER   FAIR      67  27  22 NW3G16    30.30S
ROCK SPRINGS   FAIR      64  22  20 S5        30.26S
DIXON            N/A     66  26  21 W7        30.28S
RAWLINS        CLOUDY    61  29  29 N17       30.26S
SARATOGA       MOCLDY    63  23  22 NW15      30.27S
LARAMIE        FAIR      55  34  45 NE14      30.26S
CHEYENNE       FAIR      57  37  47 N9G21     30.23S
TORRINGTON     FAIR      67  39  35 NW9       30.13F
PINE BLUFFS    FAIR      59  39  47 N12       30.19F

$$




USA.gov is the U.S. government's official web portal to all federal, state and local government web resources and services.